Regional Weather Roundup
Issued by NWS Midland/Odessa, TX

Home | Current Version | Previous Version | Text Only | Print | Product List | Glossary On
Versions: 1 2 3 4 5 6 7 8 9 10 11 12 13 14 15 16 17 18 19 20 21 22 23 24 25 26 27 28 29 30 31 32 33 34 35 36 37 38 39 40 41 42 43 44 45 46 47 48 49 50
000
ASUS44 KMAF 261110
RWRMAF
MIDLAND AREA WEATHER ROUNDUP
NATIONAL WEATHER SERVICE MIDLAND TX
600 AM CDT MON JUN 26 2017

...IN SOUTHWEST TEXAS AND SOUTHEAST NEW MEXICO...

CITY           SKY/WX    TMP DP  RH WIND       PRES   REMARKS
ALPINE         CLOUDY    66  56  68 CALM      30.29S
ANDREWS        HVY RAIN  61  61 100 NE8       30.25S
ARTESIA        CLOUDY    68  66  94 SE6       30.26S
BIG SPRING     CLOUDY    65  63  93 N17G24    30.24F
CARLSBAD       CLOUDY    66  65  96 NE12      30.23S
DRYDEN           N/A     72  67  84 SE8       30.11F
FORT STOCKTON  MOCLDY    72  64  76 E7        30.21R
GUAD PASS      CLEAR     63  60  90 NE29      30.30S
HOBBS          CLOUDY    59  59 100 E12       30.24F
MARFA          PTCLDY    61  54  77 NW3       30.28R
MIDLAND AIRPK  RAIN      64  64 100 N10       30.25R
MIDLAND INTL   RAIN      64  61  90 NE18      30.23S
ODESSA         RAIN      63  62  97 NE15G24   30.24S
PECOS          CLOUDY    66  61  84 NE21G31   30.20R
PRESIDIO       FAIR      79  61  53 N13       30.15R
SEMINOLE       RAIN      61  60  97 E7        30.23F
SNYDER         CLOUDY    68  64  88 NW17      30.21R
WINK           CLOUDY    64  62  93 MISG      30.19F
$$
...OTHER STATIONS IN TEXAS...

CITY           SKY/WX    TMP DP  RH WIND       PRES   REMARKS
ABILENE        CLOUDY    70  69  97 SE5       30.17S
AMARILLO       CLOUDY    59  57  93 NW10      30.26S
AUSTIN         MOCLDY    75  73  93 E3        30.10F
BROWNSVILLE    PTCLDY    75  74  96 N5        30.00S
CORPUS CHRISTI CLOUDY    79  74  84 E6        30.03S
DALLAS FTW     CLOUDY    73  65  75 E6        30.12S
DEL RIO        CLOUDY    73  70  90 SE9       30.08F
EL PASO        CLOUDY    73  62  68 NW7       30.18S
HOUSTON INT    MOCLDY    73  70  90 E5        30.09S
LUBBOCK        LGT RAIN  64  60  87 NW7       30.23R
SAN ANGELO     CLEAR     70  66  87 NE3       30.14R
SAN ANTONIO    MOCLDY    73  70  90 NE3       30.11S
WACO           CLOUDY    74  72  93 E5        30.12S
WICHITA FALLS  NOT AVBL
$$
...OTHER LOCATIONS IN NEW MEXICO...

CITY           SKY/WX    TMP DP  RH WIND       PRES   REMARKS
ALAMOGORDO       N/A     64  61  88 S7        30.21F
ALBUQUERQUE    CLOUDY    65  51  60 SW3       30.29R
CANNON AFB     PTCLDY    58  58 100 E3        30.29F
CLOVIS         PTCLDY    57  56  96 E8        30.29F
HOLLOMAN AFB   MOCLDY    66  61  85 S10       30.20F
ROSWELL        CLOUDY    65  60  84 S5        30.26R
RUIDOSO        CLOUDY    54  54 100 CALM      30.42S
SANTA FE       CLOUDY    58  52  80 S8        30.36S
TRUTH OR CONSE CLOUDY    67  57  70 N5        30.22S
TUCUMCARI      CLEAR     60  59  96 N5        30.27S
$$



USA.gov is the U.S. government's official web portal to all federal, state and local government web resources and services.